Location: Praha
(50.0830°N, 14.4670°E)
Time: 22:56:14
(UTC+01:00)

ISS - Visible Passes

Search period start: 16 November 2018 00:00
Search period end: 26 November 2018 00:00
Orbit: 401 x 408 km, 51.6° (Epoch: 16 November)

Date Brightness Start Highest point End Pass type
(mag) Time Alt. Az. Time Alt. Az. Time Alt. Az.
24 Nov -1.2 18:33:06 10° SSW 18:33:40 13° S 18:33:40 13° S visible
25 Nov -1.7 17:41:55 10° S 17:43:42 14° SE 17:43:48 14° SE visible
25 Nov -0.4 19:16:27 10° WSW 19:16:28 10° WSW 19:16:28 10° WSW visible
